WetterOnline ( https://www.wetteronline.de )

Wetter aktuell Schönsee

Aktuelles Wetter: Waldmünchen (499m)

6-stündlich | Neueste Meldungen
Ortszeit Temperatur Wetter
Mi, 24.07. 8:00 21.5° C fast wolkenlos
Mi, 24.07. 2:00 21.4° C wolkenlos
Di, 23.07. 20:00 28.4° C wolkenlos
Di, 23.07. 14:00 28.0° C wolkenlos
Di, 23.07. 8:00 18.0° C wolkenlos
Di, 23.07. 2:00 14.1° C wolkenlos
Mo, 22.07. 20:00 26.0° C bedeckt
Mo, 22.07. 14:00 24.6° C wolkig
Ortszeit Temperatur Wetter
Mi, 24.07. 8:00 21.5° C fast wolkenlos
Mi, 24.07. 7:50 21.5° C fast wolkenlos
Mi, 24.07. 7:40 20.4° C leicht bewölkt
Mi, 24.07. 7:30 19.7° C leicht bewölkt
Mi, 24.07. 7:20 19.7° C leicht bewölkt
Mi, 24.07. 7:10 19.6° C leicht bewölkt
Mi, 24.07. 7:00 19.4° C leicht bewölkt
Mi, 24.07. 6:30 16.9° C wolkenlos
Mi, 24.07. 6:00 16.3° C wolkenlos
Mi, 24.07. 5:30 16.5° C wolkenlos
Mi, 24.07. 5:00 16.5° C wolkenlos
Ortszeit Relative Feuchte Sichtweite
Mi, 24.07. 8:00 66% 35 km
Mi, 24.07. 2:00 57% 45 km
Di, 23.07. 20:00 43% 30 km
Di, 23.07. 14:00 41% 40 km
Di, 23.07. 8:00 75% 23 km
Di, 23.07. 2:00 91% 20 km
Mo, 22.07. 20:00 39% 45 km
Mo, 22.07. 14:00 48% 35 km
Ortszeit Relative Feuchte Sichtweite
Mi, 24.07. 8:00 66% 35 km
Mi, 24.07. 7:50 66% -
Mi, 24.07. 7:40 69% -
Mi, 24.07. 7:30 71% 26 km
Mi, 24.07. 7:20 71% -
Mi, 24.07. 7:10 70% -
Mi, 24.07. 7:00 72% 35 km
Mi, 24.07. 6:30 78% 30 km
Mi, 24.07. 6:00 83% 28 km
Mi, 24.07. 5:30 82% 30 km
Mi, 24.07. 5:00 84% 30 km
Ortszeit Niederschlagsmenge Niederschlagsart
Mi, 24.07. 8:00 0.0 l/m2 in 12 Std. -
Mi, 24.07. 2:00 0.0 l/m2 in 6 Std. -
Di, 23.07. 20:00 0.0 l/m2 in 12 Std. -
Di, 23.07. 14:00 0.0 l/m2 in 6 Std. -
Di, 23.07. 8:00 0.0 l/m2 in 12 Std. -
Di, 23.07. 2:00 0.0 l/m2 in 6 Std. -
Mo, 22.07. 20:00 0.0 l/m2 in 12 Std. -
Mo, 22.07. 14:00 0.0 l/m2 in 6 Std. -
Ortszeit Niederschlagsmenge Niederschlagsart
Mi, 24.07. 8:00 0.0 l/m2 in 1 Std. -
Mi, 24.07. 7:50 keine Meldung -
Mi, 24.07. 7:40 keine Meldung -
Mi, 24.07. 7:30 0.0 l/m2 in 1 Std. -
Mi, 24.07. 7:20 keine Meldung -
Mi, 24.07. 7:10 keine Meldung -
Mi, 24.07. 7:00 0.0 l/m2 in 1 Std. -
Mi, 24.07. 6:30 0.0 l/m2 in 1 Std. -
Mi, 24.07. 6:00 0.0 l/m2 in 1 Std. -
Mi, 24.07. 5:30 0.0 l/m2 in 1 Std. -
Mi, 24.07. 5:00 0.0 l/m2 in 1 Std. -
Ortszeit Stärke Spitze Richtung
km/h Bft. km/h Grad Sektor
Mi, 24.07. 8:00 4 1 18 100° O
Mi, 24.07. 2:00 13 3 17 10° N
Di, 23.07. 20:00 2 1 15 290° W
Di, 23.07. 14:00 9 2 24 350° N
Di, 23.07. 8:00 0 0 7 - -
Di, 23.07. 2:00 4 1 18 70° O
Mo, 22.07. 20:00 15 3 31 270° W
Mo, 22.07. 14:00 17 3 33 270° W
Ortszeit Stärke Spitze Richtung
km/h Bft. km/h Grad Sektor
Mi, 24.07. 8:00 4 1 7 100° O
Mi, 24.07. 7:50 4 1 - 100° O
Mi, 24.07. 7:40 4 1 - 90° O
Mi, 24.07. 7:30 4 1 4 100° O
Mi, 24.07. 7:20 4 1 - 100° O
Mi, 24.07. 7:10 4 1 - 120° SO
Mi, 24.07. 7:00 4 1 11 130° SO
Mi, 24.07. 6:30 0 0 11 - -
Mi, 24.07. 6:00 6 1 9 100° O
Mi, 24.07. 5:30 7 2 9 90° O
Mi, 24.07. 5:00 6 1 11 100° O
Ortszeit Untergrenze Bedeckung Gattung
total tief tief mittel hoch
Mi, 24.07. 8:00 10500 m 2/8 0/8 - - -
Mi, 24.07. 2:00 - 0/8 0/8 - - -
Di, 23.07. 20:00 - 0/8 0/8 - - -
Di, 23.07. 14:00 - 0/8 0/8 - - -
Di, 23.07. 8:00 - 0/8 0/8 - - -
Di, 23.07. 2:00 - 0/8 0/8 - - -
Mo, 22.07. 20:00 3600 m 8/8 8/8 - - -
Mo, 22.07. 14:00 1500 m 8/8 3/8 - - -
Ortszeit Bedeckungsgrad in Achtel und Wolkenuntergrenze
Mi, 24.07. 8:00 2(10500m)
Mi, 24.07. 7:50 2(10500m)
Mi, 24.07. 7:40 3(10500m)
Mi, 24.07. 7:30 5(10500m)
Mi, 24.07. 7:20 5(10500m)
Mi, 24.07. 7:10 6(10500m)
Mi, 24.07. 7:00 4(10500m)
Mi, 24.07. 6:30 keine Wolken
Mi, 24.07. 6:00 keine Wolken
Mi, 24.07. 5:30 keine Wolken
Mi, 24.07. 5:00 keine Wolken
Ortszeit Luftdruck NN (hPa) Tendenz (hPa in 3 Std.)
Mi, 24.07. 8:00 1018 - 0,2
Mi, 24.07. 2:00 1019 - 0,2
Di, 23.07. 20:00 1017 - 0,8
Di, 23.07. 14:00 1020 - 0,9
Di, 23.07. 8:00 1023 + 0,1
Di, 23.07. 2:00 1024 + 0,3
Mo, 22.07. 20:00 1021 - 0,6
Mo, 22.07. 14:00 1023 - 0,4
Ortszeit Luftdruck NN (hPa) Tendenz (hPa in 3 Std.)
Mi, 24.07. 8:00 1018 - 0,2
Mi, 24.07. 7:50 1018 keine Meldung
Mi, 24.07. 7:40 1018 keine Meldung
Mi, 24.07. 7:30 1018 0,0
Mi, 24.07. 7:20 1018 keine Meldung
Mi, 24.07. 7:10 1018 keine Meldung
Mi, 24.07. 7:00 1018 - 0,2
Mi, 24.07. 6:30 1019 - 0,3
Mi, 24.07. 6:00 1019 - 0,5
Mi, 24.07. 5:30 1019 - 0,4
Mi, 24.07. 5:00 1019 - 0,7
Ortszeit Schneehöhe (cm)
Mi, 24.07. 8:00 -
Mi, 24.07. 2:00 -
Di, 23.07. 20:00 -
Di, 23.07. 14:00 -
Di, 23.07. 8:00 -
Di, 23.07. 2:00 -
Mo, 22.07. 20:00 -
Mo, 22.07. 14:00 -
Ortszeit Schneehöhe (cm)
Mi, 24.07. 8:00 -
Mi, 24.07. 7:50 -
Mi, 24.07. 7:40 -
Mi, 24.07. 7:30 -
Mi, 24.07. 7:20 -
Mi, 24.07. 7:10 -
Mi, 24.07. 7:00 -
Mi, 24.07. 6:30 -
Mi, 24.07. 6:00 -
Mi, 24.07. 5:30 -
Mi, 24.07. 5:00 -
Link zu dieser Seite / Seite empfehlen

Das Wetter in ...